Home > Weather > Sterling Heights > Past weeks

Flag for U.S.A. Weather for the Past 2 Weeks in Sterling Heights, Michigan, U.S.A.

Now
37 °F

Passing clouds.


Feels Like: 33 °F
Forecast: 33 / 40 °F
Wind: 5 mph from South

Location: Selfridge Air National Guard Base

Current Time: Feb 8, 2016 at 3:33:48 AM

Latest Report: Feb 8, 2016 at 2:58 AM


Visibility: 10 mi

Pressure: 29.66 "Hg

Humidity: 84%

Dew point: 33 °F

Location of Sterling HeightsLocation

Historic Weather in Sterling Heights — Graph

°F

Sterling Heights Temperature Yesterday

Maximum temperature yesterday: 46 °F (at 7:58 PM)
Minimum temperature yesterday: 28 °F (at 5:58 AM)
Average temperature yesterday: 38 °F

High & Low Weather Summary for the Past Weeks

 TemperatureHumidityPressure
High52 °F (Feb 3, 7:58 AM)100% (Jan 31, 3:58 PM)30.37 "Hg (Jan 31, 3:58 PM)
Low18 °F (Jan 24, 6:58 AM)39% (Feb 6, 1:58 PM)29.46 "Hg (Feb 3, 5:58 AM)
Average34 °F76%29.93 "Hg
* Reported Jan 24 1:58 AM — Feb 8 1:58 AM, Sterling Heights, Weather by CustomWeather, © 2016

Note: Actual official high and low records may vary slightly from our data, if they occured in-between our weather recording intervals... More about our weather records

Advertising

Sterling Heights Weather History for the Previous 24 Hours

 ConditionsComfort  
Time TempWeatherWind HumidityBarometerVisibility
1:58 AM
Mon, Feb 8
37 °FOvercast.6 mph85%29.67 "Hg10 mi
12:58 AM37 °FOvercast.7 mph83%29.68 "Hg10 mi
11:58 PM
Sun, Feb 7
39 °FPassing clouds.6 mph78%29.69 "Hg10 mi
10:58 PM40 °FPassing clouds.7 mph76%29.71 "Hg10 mi
9:58 PM40 °FPartly cloudy.8 mph75%29.74 "Hg10 mi
8:58 PM45 °FMostly cloudy.9 mph59%29.75 "Hg10 mi
7:58 PM46 °FOvercast.10 mph56%29.76 "Hg12 mi
6:58 PM46 °FOvercast.14 mph56%29.78 "Hg12 mi
5:58 PM43 °FOvercast.13 mph69%29.78 "Hg10 mi
4:58 PM44 °FMostly cloudy.14 mph67%29.78 "Hg10 mi
3:58 PM45 °FPartly sunny.14 mph63%29.78 "Hg10 mi
2:58 PM43 °FPartly sunny.15 mph68%29.80 "Hg10 mi
1:58 PM43 °FBroken clouds.17 mph65%29.83 "Hg10 mi
12:58 PM42 °FPartly sunny.13 mph68%29.88 "Hg10 mi
11:58 AM41 °FPartly sunny.10 mph68%29.90 "Hg10 mi
10:58 AM39 °FPartly sunny.9 mph66%29.95 "Hg10 mi
9:58 AM35 °FBroken clouds.7 mph79%29.96 "Hg10 mi
8:58 AM33 °FPartly sunny.6 mph86%29.96 "Hg10 mi
7:58 AM28 °FBroken clouds.6 mph90%29.99 "Hg10 mi
6:58 AM28 °FClear.6 mph90%30.02 "Hg10 mi
5:58 AM28 °FClear.7 mph93%30.04 "Hg10 mi
4:58 AM29 °FOvercast.6 mph86%30.06 "Hg10 mi
3:58 AM31 °FOvercast.5 mph82%30.08 "Hg10 mi
Weather by CustomWeather, © 2016

See weather overviewHow to use our weather pages